Simultaneous Nadir Overpasses (SNOs) Predictions

Prediction of SNOs between NOAA-19 and NPP Satellite Orbit:

Table of predicted SNOs for the next 14.0 days since TLE Epoch: 9/27/2013
Index Date (NOAA-19) Time (NOAA-19) Lat,Lon (NOAA-19) SZA (NOAA-19 ) Date (NPP) Time (NPP) Lat,Lon (NPP) SZA (NPP ) Distance(km) Time Diff (sec)
1 10/04/2013 23:19:09 80.96, 137.00 88.88 10/04/2013 23:20:07 80.96, 137.08 88.84 1.36 58
2 10/05/2013 00:10:08 -80.96, -55.65 91.13 10/05/2013 00:10:52 -80.96, -55.66 91.15 0.24 44
3 10/05/2013 01:01:12 80.94, 111.97 88.83 10/05/2013 01:01:36 80.94, 112.05 88.81 1.33 24
4 10/05/2013 01:52:11 -80.94, -80.67 91.17 10/05/2013 01:52:21 -80.94, -80.69 91.17 0.33 10
5 10/05/2013 02:43:15 80.93, 86.95 88.79 10/05/2013 02:43:05 80.92, 87.02 88.79 1.31 10
6 10/05/2013
